CZ-6A DEB, 61319

Orbit data source: Space-Track

CZ-6A DEB, 61319 is space debris in LEO originally from a launch on Tue, 06 Aug 2024 UTC launched from the Taiyaun Space Center, China (TSC). Debris objects in space refer to the collection of defunct objects orbiting the Earth. Examples of debris include non-operational satellites, rocket bodies, and fragments generated from explosions, collisions, or faulty payload assembly.

Loading next visibility...
Identifier
61319, 2024-140UG
Orbit
LEO
Country
Flag of CNCN / PRC
Related business
Manufacturer
SAST
Mission
Spacecraft
Bus & Motor
Unknown
Mass
Unknown
Launch date (UTC)
2024-08-06 (2 years ago)
Launch vehicle
Unknown
Launch site
Taiyaun Space Center, China (TSC)
Object type
Payload
Rocket body
Debris
Shape & HBR
Unknown shape, 0.1 m
Radar Cross Section
Small (<0.1 m²)

Expand to show TLE details & history
Last TLE update: 16 hours ago

TLE from 16 hours ago
0 CZ-6A DEB
1 61319U 24140UG  26171.31340994  .00002066  00000-0  66177-3 0  9995
2 61319  89.0289 274.5233 0035700 227.3612 132.4578 14.38892351 94728
Epoch: 2026-06-20T07:31Z
TLE epoch observation values (Epoch: 2026-06-20T07:31:18.618Z)
Latitude
-0.00005°
Longitude
-106.8341°
Altitude
782.501 km
Speed
7.454 km/s
True Right ascension
18h 18m 05s
True Declination
0° 00' 00"
Sunlit
Object was in full shadow at epoch
Visualization orbit readout
Latitude
Unknown
Longitude
Unknown
Altitude
Unknown
Speed
Unknown
Apparent Right ascension
Unknown
Apparent Declination
Unknown
Sunlit
N/A
Visualization observer readout
Local Sidereal Time
10:18:06
Azimuth
Unknown
Elevation
Unknown
Doppler factor
Unknown
Orbital elements
Apogee altitude
784.564 km
Perigee altitude
733.605 km
Semi-major axis
7,137.221 km
Eccentricity
0.00357
Inclination
89.0289°
RAAN
274.5233°
Arg. of periapsis
227.3612°
True anomaly
132.75871°
Mean anomaly
132.4578°
Eccentric anomaly
132.60835°
Mean motion
3.59956 °/min
Orbital period
100.01 mins
BSTAR
0.00066177
Loading maneuver chart data...
Computing Atmospheric mass density...
Loading historical data...
Loading historical data...
Loading historical data...
Loading historical data...
Loading historical data...
Loading historical data...
Loading historical data...

Documentation

Showing up to 5 results
|